Time,TemperatureF,DewpointF,PressureIn,WindDirection,WindDirectionDegrees,WindSpeedMPH,WindSpeedGustMPH,Humidity,HourlyPrecipIn,Conditions,Clouds,dailyrainin,SoftwareType,DateUTC
2013-03-02 00:08:00,20.8,20.6,30.05,NNW,337,6.3,-999.0,99,-99.99,,,0.00,Acu-Link.com,2013-03-02 06:08:00,
2013-03-02 00:23:00,20.7,20.5,30.06,North,0,4.7,-999.0,99,-99.99,,,0.00,Acu-Link.com,2013-03-02 06:23:00,
2013-03-02 00:38:00,20.7,20.5,30.05,NW,315,6.8,-999.0,99,-99.99,,,0.00,Acu-Link.com,2013-03-02 06:38:00,
2013-03-02 00:53:00,20.7,20.5,30.06,NW,315,2.7,-999.0,99,-99.99,,,0.00,Acu-Link.com,2013-03-02 06:53:00,
2013-03-02 01:09:00,20.5,20.3,30.06,North,0,6.8,-999.0,99,-99.99,,,0.00,Acu-Link.com,2013-03-02 07:09:00,
2013-03-02 01:24:00,20.1,19.9,30.06,NNE,22,4.7,-999.0,99,-99.99,,,0.00,Acu-Link.com,2013-03-02 07:24:00,
2013-03-02 01:39:00,19.8,19.6,30.06,NW,315,4.7,-999.0,99,-99.99,,,0.00,Acu-Link.com,2013-03-02 07:39:00,
2013-03-02 01:54:00,19.2,19.0,30.06,North,0,3.2,-999.0,99,-99.99,,,0.00,Acu-Link.com,2013-03-02 07:54:00,
2013-03-02 02:10:00,19.0,18.8,30.05,NNW,337,3.7,-999.0,99,-99.99,,,0.00,Acu-Link.com,2013-03-02 08:10:00,
2013-03-02 02:25:00,19.0,18.8,30.05,NW,315,2.7,-999.0,99,-99.99,,,0.00,Acu-Link.com,2013-03-02 08:25:00,
2013-03-02 02:40:00,18.5,18.3,30.05,NNW,337,4.2,-999.0,99,-99.99,,,0.00,Acu-Link.com,2013-03-02 08:40:00,
2013-03-02 02:55:00,18.5,18.3,30.05,NNE,22,4.7,-999.0,99,-99.99,,,0.00,Acu-Link.com,2013-03-02 08:55:00,
2013-03-02 03:18:00,18.5,18.3,30.04,NNW,337,5.8,-999.0,99,-99.99,,,0.00,Acu-Link.com,2013-03-02 09:18:00,
2013-03-02 03:33:00,18.5,18.3,30.04,NNW,337,5.3,-999.0,99,-99.99,,,0.00,Acu-Link.com,2013-03-02 09:33:00,
2013-03-02 03:48:00,18.1,17.9,30.03,NW,315,4.2,-999.0,99,-99.99,,,0.00,Acu-Link.com,2013-03-02 09:48:00,
2013-03-02 04:03:00,18.0,17.8,30.04,NW,315,2.7,-999.0,99,-99.99,,,0.00,Acu-Link.com,2013-03-02 10:03:00,
2013-03-02 04:19:00,18.0,17.8,30.03,NNW,337,4.2,-999.0,99,-99.99,,,0.00,Acu-Link.com,2013-03-02 10:19:00,
2013-03-02 04:34:00,17.6,17.4,30.04,North,0,4.2,-999.0,99,-99.99,,,0.00,Acu-Link.com,2013-03-02 10:34:00,
2013-03-02 04:49:00,17.4,17.2,30.04,North,0,3.2,-999.0,99,-99.99,,,0.00,Acu-Link.com,2013-03-02 10:49:00,
2013-03-02 05:04:00,18.7,18.5,30.04,NNE,22,3.2,-999.0,99,-99.99,,,0.00,Acu-Link.com,2013-03-02 11:04:00,
2013-03-02 05:19:00,16.3,16.1,30.04,NNW,337,2.7,-999.0,99,-99.99,,,0.00,Acu-Link.com,2013-03-02 11:19:00,
2013-03-02 05:35:00,16.2,16.0,30.05,NW,315,4.7,-999.0,99,-99.99,,,0.00,Acu-Link.com,2013-03-02 11:35:00,
2013-03-02 05:50:00,15.4,15.2,30.04,NNE,22,3.7,-999.0,99,-99.99,,,0.00,Acu-Link.com,2013-03-02 11:50:00,
2013-03-02 06:05:00,14.2,14.0,30.04,West,270,0.0,-999.0,99,-99.99,,,0.00,Acu-Link.com,2013-03-02 12:05:00,
2013-03-02 06:20:00,12.6,12.4,30.04,WNW,292,2.7,-999.0,99,-99.99,,,0.00,Acu-Link.com,2013-03-02 12:20:00,
2013-03-02 06:35:00,11.8,11.6,30.04,North,0,3.2,-999.0,99,-99.99,,,0.00,Acu-Link.com,2013-03-02 12:35:00,
2013-03-02 06:51:00,11.3,11.1,30.05,NNE,22,2.2,-999.0,99,-99.99,,,0.00,Acu-Link.com,2013-03-02 12:51:00,
2013-03-02 07:06:00,12.9,12.2,30.05,NW,315,2.7,-999.0,97,-99.99,,,0.00,Acu-Link.com,2013-03-02 13:06:00,
2013-03-02 07:21:00,13.6,12.0,30.06,WNW,292,4.2,-999.0,93,-99.99,,,0.00,Acu-Link.com,2013-03-02 13:21:00,
2013-03-02 07:36:00,13.8,11.2,30.05,NW,315,2.7,-999.0,89,-99.99,,,0.00,Acu-Link.com,2013-03-02 13:36:00,
2013-03-02 07:52:00,14.5,11.1,30.05,NW,315,2.7,-999.0,86,-99.99,,,0.00,Acu-Link.com,2013-03-02 13:52:00,
2013-03-02 08:07:00,15.4,11.4,30.05,NW,315,3.2,-999.0,84,-99.99,,,0.00,Acu-Link.com,2013-03-02 14:07:00,
2013-03-02 08:22:00,17.1,12.3,30.05,NNW,337,4.2,-999.0,81,-99.99,,,0.00,Acu-Link.com,2013-03-02 14:22:00,
2013-03-02 08:37:00,17.6,12.2,30.04,NNW,337,3.2,-999.0,79,-99.99,,,0.00,Acu-Link.com,2013-03-02 14:37:00,
2013-03-02 08:52:00,19.8,13.2,30.05,WNW,292,4.2,-999.0,75,-99.99,,,0.00,Acu-Link.com,2013-03-02 14:52:00,
2013-03-02 09:08:00,19.9,13.3,30.04,WNW,292,2.7,-999.0,75,-99.99,,,0.00,Acu-Link.com,2013-03-02 15:08:00,
2013-03-02 09:23:00,19.9,13.9,30.04,West,270,6.8,-999.0,77,-99.99,,,0.00,Acu-Link.com,2013-03-02 15:23:00,
2013-03-02 09:38:00,21.0,14.0,30.05,North,0,4.2,-999.0,74,-99.99,,,0.00,Acu-Link.com,2013-03-02 15:38:00,
2013-03-02 09:53:00,22.5,14.2,30.04,WNW,292,4.2,-999.0,70,-99.99,,,0.00,Acu-Link.com,2013-03-02 15:53:00,
2013-03-02 10:08:00,23.9,14.9,30.04,West,270,5.3,-999.0,68,-99.99,,,0.00,Acu-Link.com,2013-03-02 16:08:00,
2013-03-02 10:24:00,24.8,15.4,30.04,West,270,4.7,-999.0,67,-99.99,,,0.00,Acu-Link.com,2013-03-02 16:24:00,
2013-03-02 10:39:00,25.9,16.1,30.04,NNE,22,5.3,-999.0,66,-99.99,,,0.00,Acu-Link.com,2013-03-02 16:39:00,
2013-03-02 10:54:00,26.1,17.7,30.04,NW,315,4.7,-999.0,70,-99.99,,,0.00,Acu-Link.com,2013-03-02 16:54:00,
2013-03-02 11:09:00,26.8,17.7,30.05,WNW,292,3.7,-999.0,68,-99.99,,,0.00,Acu-Link.com,2013-03-02 17:09:00,
2013-03-02 11:24:00,27.1,17.3,30.04,NW,315,6.8,-999.0,66,-99.99,,,0.00,Acu-Link.com,2013-03-02 17:24:00,
2013-03-02 11:40:00,26.8,17.7,30.04,NE,45,1.7,-999.0,68,-99.99,,,0.00,Acu-Link.com,2013-03-02 17:40:00,
2013-03-02 11:55:00,26.6,17.1,30.03,NW,315,4.2,-999.0,67,-99.99,,,0.00,Acu-Link.com,2013-03-02 17:55:00,
2013-03-02 12:10:00,27.9,17.7,30.02,NNW,337,7.3,-999.0,65,-99.99,,,0.00,Acu-Link.com,2013-03-02 18:10:00,
2013-03-02 12:25:00,26.6,16.8,30.02,WNW,292,6.8,-999.0,66,-99.99,,,0.00,Acu-Link.com,2013-03-02 18:25:00,
2013-03-02 12:41:00,26.8,17.3,30.02,West,270,6.8,-999.0,67,-99.99,,,0.00,Acu-Link.com,2013-03-02 18:41:00,
2013-03-02 12:56:00,26.8,17.0,30.02,North,0,5.3,-999.0,66,-99.99,,,0.00,Acu-Link.com,2013-03-02 18:56:00,
2013-03-02 13:11:00,27.7,17.1,30.02,North,0,5.8,-999.0,64,-99.99,,,0.00,Acu-Link.com,2013-03-02 19:11:00,
2013-03-02 13:26:00,27.3,17.5,30.02,WNW,292,4.2,-999.0,66,-99.99,,,0.00,Acu-Link.com,2013-03-02 19:26:00,
2013-03-02 13:41:00,27.1,17.3,30.01,NNW,337,5.3,-999.0,66,-99.99,,,0.00,Acu-Link.com,2013-03-02 19:41:00,
2013-03-02 13:57:00,27.9,17.0,30.00,West,270,4.7,-999.0,63,-99.99,,,0.00,Acu-Link.com,2013-03-02 19:57:00,
2013-03-02 14:12:00,27.1,17.6,30.01,NW,315,6.8,-999.0,67,-99.99,,,0.00,Acu-Link.com,2013-03-02 20:12:00,
2013-03-02 14:27:00,26.8,17.3,30.01,North,0,8.3,-999.0,67,-99.99,,,0.00,Acu-Link.com,2013-03-02 20:27:00,
2013-03-02 14:42:00,26.4,17.0,30.01,NW,315,4.7,-999.0,67,-99.99,,,0.00,Acu-Link.com,2013-03-02 20:42:00,
2013-03-02 14:57:00,26.2,16.8,30.02,NE,45,4.7,-999.0,67,-99.99,,,0.00,Acu-Link.com,2013-03-02 20:57:00,
2013-03-02 15:13:00,26.2,16.8,30.01,West,270,4.7,-999.0,67,-99.99,,,0.00,Acu-Link.com,2013-03-02 21:13:00,
2013-03-02 15:28:00,25.5,16.8,30.01,West,270,7.8,-999.0,69,-99.99,,,0.00,Acu-Link.com,2013-03-02 21:28:00,
2013-03-02 15:43:00,25.3,16.9,30.02,NNW,337,6.8,-999.0,70,-99.99,,,0.00,Acu-Link.com,2013-03-02 21:43:00,
2013-03-02 15:58:00,25.3,15.9,30.01,West,270,6.3,-999.0,67,-99.99,,,0.00,Acu-Link.com,2013-03-02 21:58:00,
2013-03-02 16:13:00,25.0,16.3,30.01,NW,315,1.7,-999.0,69,-99.99,,,0.00,Acu-Link.com,2013-03-02 22:13:00,
2013-03-02 16:29:00,24.4,16.0,30.01,West,270,1.7,-999.0,70,-99.99,,,0.00,Acu-Link.com,2013-03-02 22:29:00,
2013-03-02 16:44:00,24.6,16.2,30.01,NNE,22,1.7,-999.0,70,-99.99,,,0.00,Acu-Link.com,2013-03-02 22:44:00,
2013-03-02 16:59:00,24.3,15.9,30.00,NNW,337,2.7,-999.0,70,-99.99,,,0.00,Acu-Link.com,2013-03-02 22:59:00,
2013-03-02 17:14:00,25.7,15.2,30.01,NNW,337,2.2,-999.0,64,-99.99,,,0.00,Acu-Link.com,2013-03-02 23:14:00,
2013-03-02 17:30:00,23.7,14.4,30.01,WNW,292,2.7,-999.0,67,-99.99,,,0.00,Acu-Link.com,2013-03-02 23:30:00,
2013-03-02 17:45:00,20.3,14.3,30.02,WNW,292,1.1,-999.0,77,-99.99,,,0.00,Acu-Link.com,2013-03-02 23:45:00,
2013-03-02 18:00:00,18.0,14.8,30.02,NW,315,2.7,-999.0,87,-99.99,,,0.00,Acu-Link.com,2013-03-03 00:00:00,
2013-03-02 18:15:00,16.5,15.3,30.02,NNW,337,1.1,-999.0,95,-99.99,,,0.00,Acu-Link.com,2013-03-03 00:15:00,
2013-03-02 18:30:00,14.5,14.3,30.03,WNW,292,0.0,-999.0,99,-99.99,,,0.00,Acu-Link.com,2013-03-03 00:30:00,
2013-03-02 18:46:00,12.6,12.4,30.03,West,270,0.0,-999.0,99,-99.99,,,0.00,Acu-Link.com,2013-03-03 00:46:00,
2013-03-02 19:01:00,10.8,10.6,30.03,WNW,292,0.0,-999.0,99,-99.99,,,0.00,Acu-Link.com,2013-03-03 01:01:00,
2013-03-02 19:16:00,9.3,9.1,30.02,WNW,292,0.0,-999.0,99,-99.99,,,0.00,Acu-Link.com,2013-03-03 01:16:00,
2013-03-02 19:31:00,8.1,7.9,30.02,WNW,292,0.0,-999.0,99,-99.99,,,0.00,Acu-Link.com,2013-03-03 01:31:00,
2013-03-02 19:46:00,7.7,7.5,30.02,WNW,292,0.0,-999.0,99,-99.99,,,0.00,Acu-Link.com,2013-03-03 01:46:00,
2013-03-02 20:02:00,6.1,5.9,30.01,ESE,112,0.0,-999.0,99,-99.99,,,0.00,Acu-Link.com,2013-03-03 02:02:00,
2013-03-02 20:17:00,5.7,5.5,30.01,NNW,337,0.0,-999.0,99,-99.99,,,0.00,Acu-Link.com,2013-03-03 02:17:00,
2013-03-02 20:32:00,4.5,4.3,30.01,NE,45,0.0,-999.0,99,-99.99,,,0.00,Acu-Link.com,2013-03-03 02:32:00,
2013-03-02 20:48:00,4.3,4.1,30.01,West,270,0.0,-999.0,99,-99.99,,,0.00,Acu-Link.com,2013-03-03 02:48:00,
2013-03-02 21:03:00,3.7,3.5,30.01,WSW,247,0.0,-999.0,99,-99.99,,,0.00,Acu-Link.com,2013-03-03 03:03:00,
2013-03-02 21:18:00,3.6,3.4,30.02,West,270,0.0,-999.0,99,-99.99,,,0.00,Acu-Link.com,2013-03-03 03:18:00,
2013-03-02 21:33:00,2.8,2.6,30.01,NE,45,0.0,-999.0,99,-99.99,,,0.00,Acu-Link.com,2013-03-03 03:33:00,
2013-03-02 21:48:00,1.8,1.6,30.01,NE,45,0.0,-999.0,99,-99.99,,,0.00,Acu-Link.com,2013-03-03 03:48:00,
2013-03-02 22:04:00,0.7,0.5,30.01,West,270,0.0,-999.0,99,-99.99,,,0.00,Acu-Link.com,2013-03-03 04:04:00,
2013-03-02 22:19:00,-0.2,-0.4,30.01,West,270,0.0,-999.0,99,-99.99,,,0.00,Acu-Link.com,2013-03-03 04:19:00,
2013-03-02 22:34:00,-0.2,-0.4,30.01,WNW,292,0.0,-999.0,99,-99.99,,,0.00,Acu-Link.com,2013-03-03 04:34:00,
2013-03-02 22:49:00,-0.4,-0.6,30.01,WNW,292,0.0,-999.0,99,-99.99,,,0.00,Acu-Link.com,2013-03-03 04:49:00,
2013-03-02 23:04:00,-0.4,-0.6,30.00,ENE,67,0.0,-999.0,99,-99.99,,,0.00,Acu-Link.com,2013-03-03 05:04:00,
2013-03-02 23:20:00,0.0,-0.2,30.00,NNW,337,0.0,-999.0,99,-99.99,,,0.00,Acu-Link.com,2013-03-03 05:20:00,
2013-03-02 23:35:00,0.0,-0.2,30.00,NNW,337,0.0,-999.0,99,-99.99,,,0.00,Acu-Link.com,2013-03-03 05:35:00,
2013-03-02 23:50:00,-0.4,-0.6,30.00,NE,45,0.0,-999.0,99,-99.99,,,0.00,Acu-Link.com,2013-03-03 05:50:00,